H-2A R/B (38341 NORAD) Tracking and Keplerian Element Data

This shows tracking and keplerian element data for the satellite.

Feedback or suggestion? Click here.




ElementValue
Catalog38341
NameH-2A R/B
Epoch Orbit63092
Epoch Day12.72635778
Epoch Year2024
RAAN274.5023
Inclination98.4348
Eccentricity0.0051976
Argument of Perigee356.4461
Mean Anonmoly3.6377
Mean Motion14.87336074
Decay Rate4.489E-05
L11 38341U 12025E 24012.72635778 .00004489 00000+0 49192-3 0 9995
L22 38341 98.4348 274.5023 0051976 356.4461 3.6377 14.87336074630926



Live tracking and technical data element details for H-2A R/B (NORAD 38341). H-2A R/B can be tracked NOW for your location showing map with azimuth and elevation plus other details from your city location.







IsCatalogInMostPopularTable: catalog: 38341, numindb: 824
Update: records affected: 1



GetName: 38341 H-2A R/B

Hit Count: updated at: Fri, 01 Mar 2024 11:00:33 GMT